PROBA-1 1 26958U 01049B 26209.22128110 .00002399 00000+0 15682-3 0 9997 2 26958 97.9613 219.1920 0054289 345.9939 13.9779 15.07667514349803 CUTE-1 (CO-55) 1 27844U 03031E 26208.99142194 .00000300 00000+0 14846-3 0 9997 2 27844 98.6749 217.0391 0010760 69.7499 290.4835 14.24358480197480 CUBESAT XI-IV (CO-57) 1 27848U 03031J 26209.00040448 .00000261 00000+0 13361-3 0 9990 2 27848 98.6781 216.7277 0010741 86.3370 273.9036 14.23640597197189 APRIZESAT 4 1 35684U 09041D 26209.18753191 .00000876 00000+0 11077-3 0 9993 2 35684 98.1396 285.3222 0043126 186.8301 173.2330 14.83931310917448 APRIZESAT 3 1 35686U 09041F 26209.15867463 .00001200 00000+0 10824-3 0 9991 2 35686 98.2107 4.3603 0060419 292.1749 67.3067 14.96331102922504 PROBA-2 1 36037U 09059B 26209.09297832 .00000205 00000+0 58251-4 0 9992 2 36037 98.2464 31.8823 0013898 149.6708 210.5296 14.54878627887474 APRIZESAT 5 1 37792U 11044E 26209.08214090 .00000841 00000+0 11339-3 0 9993 2 37792 98.2448 143.2843 0050964 230.0936 129.5790 14.81145733804841 APRIZESAT 6 1 37793U 11044F 26208.98923443 .00000804 00000+0 12053-3 0 9994 2 37793 98.2324 120.3165 0042132 316.8711 53.0513 14.76973830803170 PROBA-V 1 39159U 13021A 26208.88416654 .00000065 00000+0 46666-4 0 9996 2 39159 98.3618 185.4882 0004685 29.3751 330.7691 14.23605488686909 APRIZESAT 7 1 39416U 13066A 26209.14197382 .00001545 00000+0 15747-3 0 9994 2 39416 97.7730 161.7799 0037325 76.1439 284.3928 14.91647660687335 APRIZESAT 8 1 39425U 13066K 26209.17010215 .00000922 00000+0 10532-3 0 9991 2 39425 97.8236 156.0718 0046588 149.3936 211.0014 14.87715348685763 BUGSAT-1 (TITA) 1 40014U 14033E 26209.16241491 .00004933 00000+0 25821-3 0 9996 2 40014 98.0436 304.1191 0028458 43.4860 316.8608 15.15996807662043 SAUDISAT 4 1 40016U 14033G 26207.95196691 .00000601 00000+0 85910-4 0 9998 2 40016 97.7633 352.7239 0043496 305.0417 54.6717 14.79586625651954 APRIZESAT 9 1 40018U 14033J 26208.93132868 .00000646 00000+0 10181-3 0 9991 2 40018 97.9110 341.1454 0067364 69.8154 291.0283 14.74267025649566 APRIZESAT 10 1 40019U 14033K 26208.80674923 .00000752 00000+0 12503-3 0 9999 2 40019 97.9695 334.8705 0079621 143.3230 217.3464 14.70926142648227 TECHDEMOSAT-1 (TDS-1) 1 40076U 14037H 26208.94820882 .00009197 00000+0 51255-3 0 9997 2 40076 98.3827 205.2233 0007750 123.3121 236.8851 15.13839732654397 TECHNOSAT 1 42829U 17042E 26209.00389338 .00002659 00000+0 19022-3 0 9990 2 42829 97.4317 5.1248 0016482 318.2185 41.7782 15.05165798492840 FLYING LAPTOP 1 42831U 17042G 26209.17656078 .00002391 00000+0 18932-3 0 9991 2 42831 97.4861 3.1839 0018790 350.9152 9.1730 15.01379066492608 HAWK-A 1 43765U 18099H 26209.09893432 .00008780 00000+0 34702-3 0 9990 2 43765 97.3891 260.8071 0035770 139.4738 220.9174 15.25122167419332 HAWK-B 1 43794U 18099AN 26209.10412682 .00007435 00000+0 31220-3 0 9996 2 43794 97.3942 260.1408 0032596 157.0646 203.2055 15.23253768419269 HAWK-C 1 43799U 18099AT 26209.11261500 .00010432 00000+0 36716-3 0 9999 2 43799 97.3868 261.9371 0041319 138.9432 221.4930 15.28684758420160 SALSAT 1 46495U 20068K 26209.01933591 .00008656 00000+0 29739-3 0 9991 2 46495 97.8861 214.5891 0010563 149.9566 210.2281 15.30333587321600 HAWK-2C 1 47502U 21006CT 26209.15878898 .00006937 00000+0 20555-3 0 9994 2 47502 97.2259 252.6582 0008337 63.8931 296.3170 15.35131405305784 HAWK-2A 1 47505U 21006CW 26209.09560149 .00010837 00000+0 31928-3 0 9997 2 47505 97.2301 253.2984 0007924 68.0033 292.2052 15.35175962305778 HAWK-2B 1 47508U 21006CZ 26209.08804645 .00008455 00000+0 24868-3 0 9999 2 47508 97.2173 251.5587 0008415 66.1548 294.0577 15.35298607305778 HAWK-3B 1 48931U 21059BE 26209.08316572 .00051478 00000+0 37844-3 0 9996 2 48931 97.6619 49.7621 0005356 157.0275 203.1229 15.72938514284277 HAWK-3C 1 48948U 21059BX 26209.14649061 .00046802 00000+0 34437-3 0 9993 2 48948 97.6739 55.5866 0005697 156.3526 203.8000 15.72934261284283 HAWK-3A 1 48957U 21059CG 26209.08274521 .00049290 00000+0 36263-3 0 9994 2 48957 97.6683 52.6886 0005545 159.1478 201.0012 15.72927991284274 HAWK-5C 1 52754U 22057Y 26209.17723216 .00020488 00000+0 33299-3 0 9997 2 52754 97.6626 11.5390 0002535 278.9290 81.1675 15.52734718232707 HAWK-5B 1 52756U 22057AA 26209.17706168 .00021015 00000+0 34143-3 0 9992 2 52756 97.6640 9.8945 0003234 268.1678 91.9203 15.52737449232709 HAWK-5A 1 52757U 22057AB 26209.17685206 .00021097 00000+0 34275-3 0 9998 2 52757 97.6639 10.7237 0003141 274.1972 85.8921 15.52738487232706 HAWK-6B 1 55324U 23011A 26209.03258718 .00004952 00000+0 21263-3 0 9995 2 55324 40.4990 113.7731 0004230 304.3774 55.6635 15.23254311194075 HAWK-6C 1 55326U 23011C 26209.03195837 .00004802 00000+0 20646-3 0 9997 2 55326 40.4977 110.6113 0004729 300.9434 59.0911 15.23252673194085 HAWK-6A 1 55327U 23011D 26208.83530446 .00004805 00000+0 20660-3 0 9993 2 55327 40.4989 113.3870 0004534 295.5651 64.4689 15.23251965194055 HAWK-7A 1 56191U 23054P 26209.18272657 .00005967 00000+0 22274-3 0 9999 2 56191 97.2646 95.4769 0001215 219.2479 140.8673 15.27752410183286 HAWK-7B 1 56193U 23054R 26209.18264867 .00005868 00000+0 21909-3 0 9999 2 56193 97.2674 93.7552 0000225 204.0787 156.0443 15.27754617183289 HAWK-7C 1 56200U 23054Y 26209.18252784 .00005836 00000+0 21794-3 0 9990 2 56200 97.2650 94.5111 0000787 191.7427 168.3794 15.27752867183288